Stations météo

Publicité
Ouessant, France (7100): Température de l'air & dewpoint: 18.05.2017 11:00:00 - 24.05.2017 11:00:00 (CEST)Ouessant, France (7100): Vitesse du vent & gusts: 18.05.2017 11:00:00 - 24.05.2017 11:00:00 (CEST)Ouessant, France (7100): Direction du vent: 18.05.2017 11:00:00 - 24.05.2017 11:00:00 (CEST)Ouessant, France (7100): reduced air pressure: 18.05.2017 11:00:00 - 24.05.2017 11:00:00 (CEST)Ouessant, France (7100): visibility: 18.05.2017 11:00:00 - 24.05.2017 11:00:00 (CEST)Ouessant, France (7100): Quantités de précipitations: 18.05.2017 11:00:00 - 24.05.2017 11:00:00 (CEST)
Date & Time tt [°C] td [°C] ff [km/h] ff [knt] fx [km/h] fx [knt] dd ppp [hPa] vv [km] rr [mm]
24.05.2017 11:00:00 15,3 14,0 18 10 26 14 NE 1026,1 4,0 0,0
24.05.2017 10:00:00 14,9 14,6 21 12 29 16 E 1026,1 - 0,0
24.05.2017 09:00:00 13,6 13,3 21 11 29 15 E 1026,1 - 0,0
24.05.2017 08:00:00 13,4 13,1 21 12 26 14 NNE 1026,2 0,3 0,0
24.05.2017 07:00:00 13,0 12,7 17 9 22 12 NNE 1025,9 - 0,0
24.05.2017 06:00:00 13,0 12,7 16 8 20 11 N 1025,8 - 0,0
24.05.2017 05:00:00 12,9 12,6 12 7 17 9 N 1025,9 0,3 0,0
24.05.2017 04:00:00 13,2 12,9 10 5 16 9 N 1026,0 - 0,0
24.05.2017 03:00:00 13,3 13,0 10 6 16 9 N 1026,3 - 0,0
24.05.2017 02:00:00 13,4 13,1 10 6 16 9 N 1026,5 8 0,0
24.05.2017 01:00:00 13,6 13,1 10 5 15 8 NNW 1026,5 - 0,0
24.05.2017 00:00:00 13,6 13,1 11 6 16 9 N 1026,5 - 0,0
23.05.2017 23:00:00 13,8 13,3 13 7 16 9 NNW 1026,5 - 0,0
23.05.2017 22:00:00 14,1 13,3 11 6 14 8 NNW 1026,0 - 0,0
23.05.2017 21:00:00 14,4 13,4 11 6 15 8 NNW 1025,8 - 0,0
23.05.2017 20:00:00 14,7 13,6 10 5 14 8 NW 1025,7 8 0,0
23.05.2017 19:00:00 15,2 13,9 10 5 17 9 NW 1025,6 - 0,0
23.05.2017 18:00:00 15,5 14,0 12 6 20 11 NW 1025,5 - 0,0
23.05.2017 17:00:00 15,8 14,2 17 9 23 13 WNW 1025,3 - 0,0
23.05.2017 16:00:00 15,4 14,4 19 10 25 13 WNW 1025,4 - 0,0
23.05.2017 15:00:00 15,7 14,6 15 8 20 11 W 1025,1 - 0,0
23.05.2017 14:00:00 17,0 15,0 16 9 27 15 W 1025,0 8 0,0
23.05.2017 13:00:00 15,7 14,6 18 10 26 14 W 1024,8 - 0,0
23.05.2017 12:00:00 15,0 13,9 18 10 27 14 W 1024,7 - 0,0
23.05.2017 11:00:00 15,6 14,1 19 11 26 14 W 1024,1 15 0,0
23.05.2017 10:00:00 14,9 13,6 20 11 27 15 W 1023,8 - 0,0
23.05.2017 09:00:00 14,2 13,1 18 10 27 15 WSW 1023,3 - 0,0
23.05.2017 08:00:00 13,8 12,9 19 10 26 14 WSW 1022,8 18 0,0
23.05.2017 07:00:00 13,5 12,4 19 11 27 15 WSW 1022,2 - 0,0
23.05.2017 06:00:00 13,3 12,2 18 10 27 15 WSW 1021,9 - 0,0
23.05.2017 05:00:00 13,2 12,4 17 9 26 14 WSW 1021,8 12 0,0
23.05.2017 04:00:00 13,0 12,5 15 8 23 12 WSW 1021,9 - 0,0
23.05.2017 03:00:00 12,4 11,9 19 10 26 14 WSW 1021,5 - 0,0
23.05.2017 02:00:00 11,8 11,3 21 11 24 13 W 1021,5 24 0,0
23.05.2017 01:00:00 11,6 11,0 19 10 24 13 W 1021,0 - 0,0
23.05.2017 00:00:00 11,9 11,1 18 10 26 14 WNW 1021,1 - 0,0
22.05.2017 23:00:00 12,2 11,4 19 10 25 13 WNW 1020,7 - 0,0
22.05.2017 22:00:00 12,5 11,2 16 8 22 12 WNW 1020,0 - 0,0
22.05.2017 21:00:00 13,8 11,8 18 10 29 16 WNW 1019,4 - 0,0
22.05.2017 20:00:00 14,4 12,1 22 12 36 19 NW 1018,9 15 0,0
22.05.2017 19:00:00 15,6 14,0 21 11 35 19 W 1018,3 - 0,0
22.05.2017 18:00:00 15,5 13,5 23 12 32 18 W 1017,9 - 0,0
22.05.2017 17:00:00 17,1 14,4 24 13 33 18 W 1017,4 15 0,0
22.05.2017 16:00:00 16,3 13,4 24 13 31 17 WNW 1017,3 - 0,0
22.05.2017 15:00:00 16,2 12,9 22 12 34 18 WNW 1017,2 - 0,0
22.05.2017 14:00:00 15,9 13,4 24 13 35 19 WNW 1017,0 13 0,0
22.05.2017 13:00:00 15,7 13,4 23 12 36 19 WNW 1016,3 - 0,0
22.05.2017 12:00:00 15,5 12,3 25 13 35 19 WNW 1015,8 - 0,0
22.05.2017 11:00:00 15,6 12,9 24 13 32 18 WNW 1015,1 15 0,0
22.05.2017 10:00:00 14,9 12,6 23 12 32 17 W 1014,4 - 0,0
22.05.2017 09:00:00 15,5 13,3 24 13 39 21 S 1013,3 - 0,0
22.05.2017 08:00:00 14,4 12,1 30 16 38 21 S 1013,1 25 0,0
22.05.2017 07:00:00 14,3 11,4 21 11 40 21 SSE 1012,1 - 0,0
22.05.2017 06:00:00 14,6 11,6 16 9 30 16 SSE 1012,1 - 0,0
22.05.2017 05:00:00 14,8 11,6 14 8 26 14 SSE 1012,4 22 0,0
22.05.2017 04:00:00 14,9 11,7 15 8 26 14 SSE 1012,6 - 0,0
22.05.2017 03:00:00 15,5 11,1 17 9 29 16 SE 1013,2 - 0,0
22.05.2017 02:00:00 15,1 11,3 22 12 34 19 SE 1013,5 22 0,0
22.05.2017 01:00:00 15,2 10,6 26 14 32 17 ESE 1013,7 - 0,0
22.05.2017 00:00:00 14,6 11,0 21 11 29 16 ESE 1014,5 - 0,0
21.05.2017 23:00:00 13,3 11,7 18 10 26 14 ESE 1014,8 20 0,0
21.05.2017 22:00:00 13,0 11,6 5 3 22 12 SE 1015,2 - 0,0
21.05.2017 21:00:00 14,6 11,6 17 9 25 14 NE 1015,6 - 0,0
21.05.2017 20:00:00 16,3 11,0 15 8 32 18 NE 1016,0 30 0,0
21.05.2017 19:00:00 16,6 9,3 17 9 40 22 SSE 1016,7 - 0,0
21.05.2017 18:00:00 16,4 9,3 23 13 44 24 SSE 1016,8 - 0,0
21.05.2017 17:00:00 16,4 10,5 26 14 43 23 SE 1017,5 30 0,0
21.05.2017 16:00:00 16,0 11,6 21 11 38 21 SSE 1018,4 - 0,0
21.05.2017 15:00:00 16,0 11,4 26 14 43 23 SE 1019,0 - 0,0
21.05.2017 14:00:00 16,0 11,8 27 14 44 24 SE 1019,6 - 0,0
21.05.2017 13:00:00 15,3 11,5 24 13 41 22 SE 1020,4 - 0,0
21.05.2017 12:00:00 15,4 11,4 27 15 39 21 SE 1020,9 - 0,0
21.05.2017 11:00:00 14,8 11,0 27 14 39 21 SE 1021,5 25 0,0
21.05.2017 10:00:00 13,8 11,0 28 15 39 21 SE 1021,7 - 0,0
21.05.2017 09:00:00 12,9 11,1 25 14 37 20 SE 1022,0 - 0,0
21.05.2017 08:00:00 12,2 10,8 15 8 27 15 SE 1021,9 18 0,0
21.05.2017 07:00:00 11,3 10,4 10 5 18 10 SSE 1022,0 - 0,0
21.05.2017 06:00:00 11,1 10,3 10 5 16 9 SSE 1021,8 - 0,0
21.05.2017 05:00:00 11,0 10,1 11 6 19 10 S 1022,1 20 0,0
21.05.2017 04:00:00 11,2 10,1 16 9 23 13 S 1022,6 - 0,0
21.05.2017 03:00:00 11,4 10,0 19 10 26 14 S 1022,9 - 0,0
21.05.2017 02:00:00 11,5 9,7 16 8 26 14 S 1023,1 25 0,0
21.05.2017 01:00:00 11,3 9,6 23 12 26 14 S 1023,4 - 0,0
21.05.2017 00:00:00 10,9 9,3 20 11 22 12 S 1023,4 - 0,0
20.05.2017 23:00:00 10,2 8,5 17 9 21 12 SSW 1023,5 25 0,0
20.05.2017 22:00:00 10,7 8,1 17 9 22 12 SW 1023,0 - 0,0
20.05.2017 21:00:00 12,8 8,3 16 9 30 16 SW 1022,7 - 0,0
20.05.2017 20:00:00 13,4 8,0 22 12 36 19 WSW 1022,3 25 0,0
20.05.2017 19:00:00 14,5 8,4 24 13 38 20 SW 1022,0 - 0,0
20.05.2017 18:00:00 15,2 8,9 25 14 41 22 WSW 1022,2 - 0,0
20.05.2017 17:00:00 15,2 9,5 24 13 39 21 SW 1022,0 25 0,0
20.05.2017 16:00:00 14,5 9,7 25 14 40 21 WSW 1021,8 - 0,0
20.05.2017 15:00:00 14,7 9,5 31 17 41 22 W 1021,4 - 0,0
20.05.2017 14:00:00 13,7 8,3 27 15 39 21 SW 1020,9 23 0,0
20.05.2017 13:00:00 13,8 10,2 24 13 40 22 WSW 1020,7 - 0,0
20.05.2017 12:00:00 12,3 10,0 21 11 33 18 SW 1020,4 - 0,0
20.05.2017 11:00:00 12,4 9,0 21 11 42 23 W 1019,9 20 0,4
20.05.2017 10:00:00 12,7 9,7 22 12 34 18 WSW 1019,3 - 0,0
20.05.2017 09:00:00 12,4 9,9 24 13 34 18 W 1018,9 - 0,0
20.05.2017 08:00:00 10,5 8,6 23 12 34 19 W 1018,4 25 0,0
20.05.2017 07:00:00 10,4 8,7 23 12 32 17 W 1017,8 - 0,0
20.05.2017 06:00:00 9,5 7,8 22 12 28 15 W 1017,4 - 0,0
20.05.2017 05:00:00 9,7 7,6 23 12 37 20 W 1017,5 18 0,4
20.05.2017 04:00:00 9,4 7,8 18 10 35 19 W 1017,5 - 0,2
20.05.2017 03:00:00 9,7 7,6 22 12 28 15 W 1017,5 - 0,0
20.05.2017 02:00:00 9,1 7,0 21 11 29 16 W 1017,6 25 0,0
20.05.2017 01:00:00 10,1 7,3 21 11 32 17 W 1017,4 - 0,0
20.05.2017 00:00:00 10,1 7,9 21 12 34 18 WNW 1017,5 - 0,0
19.05.2017 23:00:00 10,7 7,6 28 15 35 19 W 1017,3 25 0,0
19.05.2017 22:00:00 10,6 7,7 25 13 31 17 W 1016,8 - 0,0
19.05.2017 21:00:00 11,5 7,8 24 13 35 19 WNW 1016,6 - 0,0
19.05.2017 20:00:00 12,9 8,4 27 15 35 19 W 1016,3 30 0,0
19.05.2017 19:00:00 12,8 8,1 24 13 36 19 WNW 1016,1 - 0,0
19.05.2017 18:00:00 13,8 9,0 24 13 37 20 WNW 1015,8 - 0,0
19.05.2017 17:00:00 14,1 8,7 26 14 37 20 WNW 1015,8 30 0,0
19.05.2017 16:00:00 13,7 8,9 23 12 32 17 WNW 1015,7 - 0,0
19.05.2017 15:00:00 13,9 8,7 21 11 30 16 WNW 1015,6 - 0,0
19.05.2017 14:00:00 13,2 8,5 20 11 31 17 W 1015,4 25 0,0
19.05.2017 13:00:00 13,4 8,2 14 8 27 15 W 1015,3 - 0,0
19.05.2017 12:00:00 13,2 9,4 16 9 26 14 WNW 1015,1 - 0,0
19.05.2017 11:00:00 12,9 8,2 13 7 20 11 W 1014,9 20 0,0
19.05.2017 10:00:00 12,3 7,2 11 6 19 11 W 1014,8 - 0,0
19.05.2017 09:00:00 11,6 8,8 16 9 23 12 W 1014,4 - 0,0
19.05.2017 08:00:00 9,7 7,5 13 7 17 9 WNW 1014,3 25 0,0
19.05.2017 07:00:00 8,2 5,8 14 7 21 11 WNW 1014,0 - 0,0
19.05.2017 06:00:00 8,7 6,1 17 9 23 12 WNW 1014,0 - 0,0
19.05.2017 05:00:00 8,7 6,7 17 9 23 13 WNW 1014,3 25 0,0
19.05.2017 04:00:00 8,2 5,8 16 9 24 13 W 1014,3 - 0,0
19.05.2017 03:00:00 8,9 6,7 18 10 24 13 WNW 1014,6 - 0,0
19.05.2017 02:00:00 8,5 6,3 16 9 26 14 W 1014,9 20 0,0
19.05.2017 01:00:00 9,4 6,8 20 11 27 15 WNW 1015,2 - 0,0
19.05.2017 00:00:00 9,2 7,6 18 10 26 14 W 1015,2 - 0,0
18.05.2017 23:00:00 9,1 7,4 14 7 27 14 W 1015,5 - 0,6
18.05.2017 22:00:00 9,2 7,3 14 8 32 18 W 1015,2 - 0,4
18.05.2017 21:00:00 10,6 6,9 20 11 27 15 W 1015,0 - 0,0
18.05.2017 20:00:00 12,7 8,4 21 11 29 16 WNW 1015,0 25 0,0
18.05.2017 19:00:00 11,9 7,2 24 13 31 17 W 1015,0 - 0,0
18.05.2017 18:00:00 13,2 8,5 23 12 33 18 W 1015,2 - 0,0
18.05.2017 17:00:00 14,1 8,5 26 14 34 19 W 1015,0 - 0,0
18.05.2017 16:00:00 13,7 8,7 26 14 34 19 W 1015,3 - 0,0
18.05.2017 15:00:00 14,0 8,2 23 12 30 16 WNW 1015,5 - 0,0
18.05.2017 14:00:00 13,9 8,5 20 11 28 15 W 1015,6 22 0,0
18.05.2017 13:00:00 13,0 7,9 18 10 29 16 NW 1015,9 - 0,0
18.05.2017 12:00:00 13,3 8,1 16 9 29 16 NW 1015,9 - 0,0
18.05.2017 11:00:00 12,9 8,8 17 9 32 18 NNW 1015,9 - 0,0

tt = Température de l'air
td = dewpoint
ff = Vitesse du vent
fx = gusts
dd = Direction du vent
ppp = reduced air pressure
vv = visibility
rr = Quantités de précipitations

stations d'obs. à proximité